When you browse on this site, cookies collect data to enhance your experience and personalize the content and advertising you see.
Visit our Privacy Policy to learn more. By continuing to use the site, you agree to this use of cookies and data.
  • In Österreich
  • Länderverzeichnis
  • Für 7 Tage
  • Wassertemperatur
  • Wetterkarte
  • News
  • Widgets
  • user-avatar
    Anmelden

    Stündliche Wetter San Marcos

    Heute, 17 August, Samstag

    Zeit Temperatur Niederschläge Wind Luftdruck Luftfeuchtigkeit
    00:00 +14°C° 0.1 mm 0 m/S 596 mmHg 92%
    01:00 +14°C° 0.1 mm 0 m/S 596 mmHg 92%
    02:00 +13°C° 0.1 mm 0 m/S 595 mmHg 92%
    03:00 +13°C° 0 mm 0 m/S 595 mmHg 92%
    04:00 +13°C° 0 mm 0 m/S 595 mmHg 91%
    05:00 +13°C° 0 mm 0 m/S 595 mmHg 91%
    06:00 +15°C° 0 mm 0 m/S 596 mmHg 84%
    07:00 +17°C° 0 mm 0 m/S 597 mmHg 77%
    08:00 +19°C° 0 mm 0 m/S 598 mmHg 69%
    09:00 +22°C° 0 mm 1 m/S 598 mmHg 64%
    10:00 +24°C° 0 mm 1 m/S 599 mmHg 59%
    11:00 +25°C° 0 mm 2 m/S 599 mmHg 54%
    12:00 +26°C° 0.1 mm 2 m/S 599 mmHg 51%
    13:00 +27°C° 0.1 mm 3 m/S 598 mmHg 48%
    14:00 +28°C° 0.1 mm 3 m/S 598 mmHg 46%
    15:00 +26°C° 0.2 mm 4 m/S 597 mmHg 52%
    16:00 +25°C° 0.2 mm 4 m/S 597 mmHg 58%
    17:00 +23°C° 0.2 mm 5 m/S 596 mmHg 64%
    18:00 +21°C° 0.2 mm 4 m/S 596 mmHg 73%
    19:00 +19°C° 0.2 mm 2 m/S 596 mmHg 82%
    20:00 +18°C° 0.2 mm 1 m/S 596 mmHg 90%
    21:00 +18°C° 0 mm 1 m/S 596 mmHg 91%
    22:00 +15°C° 0 mm 0 m/S 596 mmHg 92%
    23:00 +15°C° 0 mm 0 m/S 596 mmHg 92%

    Morgen, 18 August, Sonntag

    Zeit Temperatur Niederschläge Wind Luftdruck Luftfeuchtigkeit
    00:00 +14°C° 0 mm 0 m/S 595 mmHg 92%
    01:00 +14°C° 0 mm 0 m/S 595 mmHg 92%
    02:00 +14°C° 0 mm 0 m/S 594 mmHg 92%
    03:00 +13°C° 0 mm 0 m/S 594 mmHg 91%
    04:00 +13°C° 0 mm 0 m/S 594 mmHg 91%
    05:00 +13°C° 0 mm 0 m/S 594 mmHg 91%
    06:00 +15°C° 0 mm 0 m/S 595 mmHg 83%
    07:00 +17°C° 0 mm 0 m/S 596 mmHg 76%
    08:00 +19°C° 0 mm 0 m/S 597 mmHg 69%
    09:00 +22°C° 0 mm 1 m/S 598 mmHg 61%
    10:00 +24°C° 0 mm 1 m/S 598 mmHg 54%
    11:00 +25°C° 0 mm 2 m/S 598 mmHg 46%
    12:00 +26°C° 0 mm 3 m/S 598 mmHg 45%
    13:00 +27°C° 0 mm 4 m/S 598 mmHg 44%
    14:00 +27°C° 0 mm 4 m/S 597 mmHg 43%
    15:00 +26°C° 0.1 mm 4 m/S 597 mmHg 50%
    16:00 +25°C° 0.1 mm 4 m/S 596 mmHg 57%
    17:00 +22°C° 0.1 mm 4 m/S 596 mmHg 65%
    18:00 +21°C° 0.4 mm 3 m/S 596 mmHg 74%
    19:00 +19°C° 0.4 mm 3 m/S 596 mmHg 83%
    20:00 +17°C° 0.4 mm 2 m/S 596 mmHg 92%
    21:00 +16°C° 0 mm 1 m/S 595 mmHg 93%
    22:00 +16°C° 0 mm 1 m/S 595 mmHg 95%
    23:00 +15°C° 0 mm 1 m/S 595 mmHg 96%

    übermorgen, 19 August, Montag

    Zeit Temperatur Niederschläge Wind Luftdruck Luftfeuchtigkeit
    00:00 +15°C° 0 mm 1 m/S 595 mmHg 96%
    01:00 +14°C° 0 mm 0 m/S 594 mmHg 97%
    02:00 +14°C° 0 mm 0 m/S 594 mmHg 97%
    03:00 +14°C° 0 mm 0 m/S 594 mmHg 97%
    04:00 +14°C° 0 mm 0 m/S 595 mmHg 96%
    05:00 +14°C° 0 mm 0 m/S 595 mmHg 96%
    06:00 +16°C° 0 mm 1 m/S 596 mmHg 91%
    07:00 +18°C° 0 mm 1 m/S 596 mmHg 85%
    08:00 +19°C° 0 mm 1 m/S 597 mmHg 80%
    09:00 +19°C° 0 mm 2 m/S 597 mmHg 75%
    10:00 +20°C° 0 mm 2 m/S 597 mmHg 70%
    11:00 +22°C° 0 mm 3 m/S 597 mmHg 64%
    12:00 +22°C° 0.4 mm 4 m/S 597 mmHg 65%
    13:00 +22°C° 0.4 mm 5 m/S 596 mmHg 66%
    14:00 +23°C° 0.4 mm 6 m/S 596 mmHg 66%
    15:00 +22°C° 0.7 mm 6 m/S 596 mmHg 70%
    16:00 +21°C° 0.7 mm 6 m/S 595 mmHg 73%
    17:00 +20°C° 0.7 mm 6 m/S 595 mmHg 77%
    18:00 +19°C° 0 mm 5 m/S 595 mmHg 82%
    19:00 +17°C° 0 mm 3 m/S 595 mmHg 88%
    20:00 +16°C° 0 mm 2 m/S 595 mmHg 94%
    21:00 +15°C° 0 mm 2 m/S 596 mmHg 95%
    22:00 +15°C° 0 mm 1 m/S 596 mmHg 95%
    23:00 +15°C° 0 mm 1 m/S 596 mmHg 96%

    20 August, Dienstag

    Zeit Temperatur Niederschläge Wind Luftdruck Luftfeuchtigkeit
    00:00 +14°C° 0 mm 1 m/S 595 mmHg 96%
    01:00 +14°C° 0 mm 1 m/S 595 mmHg 97%
    02:00 +14°C° 0 mm 1 m/S 594 mmHg 97%
    03:00 +13°C° 0 mm 1 m/S 595 mmHg 96%
    04:00 +13°C° 0 mm 1 m/S 595 mmHg 95%
    05:00 +12°C° 0 mm 0 m/S 595 mmHg 94%
    06:00 +14°C° 0 mm 1 m/S 596 mmHg 87%
    07:00 +15°C° 0 mm 1 m/S 596 mmHg 80%
    08:00 +16°C° 0 mm 1 m/S 597 mmHg 73%
    09:00 +18°C° 0 mm 2 m/S 597 mmHg 65%
    10:00 +20°C° 0 mm 3 m/S 598 mmHg 57%
    11:00 +22°C° 0 mm 3 m/S 598 mmHg 49%
    12:00 +23°C° 0 mm 5 m/S 598 mmHg 51%
    13:00 +23°C° 0 mm 6 m/S 597 mmHg 53%
    14:00 +23°C° 0 mm 7 m/S 597 mmHg 54%
    15:00 +22°C° 0.1 mm 7 m/S 597 mmHg 61%
    16:00 +21°C° 0.1 mm 7 m/S 597 mmHg 67%
    17:00 +20°C° 0.1 mm 7 m/S 596 mmHg 74%
    18:00 +17°C° 0 mm 5 m/S 596 mmHg 80%
    19:00 +15°C° 0 mm 4 m/S 596 mmHg 86%
    20:00 +15°C° 0 mm 2 m/S 596 mmHg 93%
    21:00 +14°C° 0 mm 2 m/S 596 mmHg 94%
    22:00 +14°C° 0 mm 1 m/S 596 mmHg 95%
    23:00 +14°C° 0 mm 1 m/S 596 mmHg 96%

    21 August, Mittwoch

    Zeit Temperatur Niederschläge Wind Luftdruck Luftfeuchtigkeit
    00:00 +14°C° 0 mm 1 m/S 596 mmHg 96%
    01:00 +14°C° 0 mm 1 m/S 596 mmHg 95%
    02:00 +14°C° 0 mm 1 m/S 596 mmHg 95%
    03:00 +14°C° 0 mm 1 m/S 596 mmHg 94%
    04:00 +14°C° 0 mm 1 m/S 596 mmHg 94%
    05:00 +14°C° 0 mm 1 m/S 596 mmHg 93%
    06:00 +15°C° 0 mm 1 m/S 597 mmHg 88%
    07:00 +16°C° 0 mm 1 m/S 597 mmHg 82%
    08:00 +18°C° 0 mm 1 m/S 598 mmHg 77%
    09:00 +18°C° 0 mm 2 m/S 598 mmHg 71%
    10:00 +20°C° 0 mm 2 m/S 598 mmHg 66%
    11:00 +21°C° 0 mm 3 m/S 598 mmHg 60%
    12:00 +22°C° 0.1 mm 3 m/S 598 mmHg 60%
    13:00 +22°C° 0.1 mm 4 m/S 598 mmHg 59%
    14:00 +23°C° 0.1 mm 4 m/S 597 mmHg 58%
    15:00 +22°C° 0.9 mm 4 m/S 597 mmHg 65%
    16:00 +20°C° 0.9 mm 4 m/S 597 mmHg 72%
    17:00 +19°C° 0.9 mm 5 m/S 596 mmHg 79%
    18:00 +18°C° 0.5 mm 4 m/S 596 mmHg 84%
    19:00 +17°C° 0.5 mm 3 m/S 597 mmHg 88%
    20:00 +16°C° 0.5 mm 2 m/S 597 mmHg 93%
    21:00 +16°C° 0.1 mm 1 m/S 597 mmHg 93%
    22:00 +16°C° 0.1 mm 1 m/S 597 mmHg 94%
    23:00 +16°C° 0.1 mm 1 m/S 597 mmHg 94%

    22 August, Donnerstag

    Zeit Temperatur Niederschläge Wind Luftdruck Luftfeuchtigkeit
    00:00 +16°C° 0 mm 1 m/S 597 mmHg 94%
    01:00 +15°C° 0 mm 0 m/S 596 mmHg 93%
    02:00 +15°C° 0 mm 0 m/S 596 mmHg 93%
    03:00 +14°C° 0 mm 0 m/S 596 mmHg 94%
    04:00 +14°C° 0 mm 0 m/S 596 mmHg 95%
    05:00 +14°C° 0 mm 0 m/S 596 mmHg 95%
    06:00 +15°C° 0 mm 0 m/S 597 mmHg 90%
    07:00 +16°C° 0 mm 0 m/S 597 mmHg 85%
    08:00 +17°C° 0 mm 0 m/S 598 mmHg 80%
    09:00 +19°C° 0.4 mm 0 m/S 598 mmHg 74%
    10:00 +22°C° 0.4 mm 1 m/S 599 mmHg 67%
    11:00 +24°C° 0.4 mm 1 m/S 599 mmHg 61%
    12:00 +24°C° 1.4 mm 2 m/S 598 mmHg 61%
    13:00 +24°C° 1.4 mm 2 m/S 598 mmHg 61%
    14:00 +24°C° 1.4 mm 3 m/S 598 mmHg 62%
    15:00 +22°C° 2.3 mm 3 m/S 597 mmHg 69%
    16:00 +21°C° 2.3 mm 3 m/S 597 mmHg 76%
    17:00 +19°C° 2.3 mm 3 m/S 596 mmHg 83%
    18:00 +18°C° 3.5 mm 2 m/S 596 mmHg 86%
    19:00 +17°C° 3.5 mm 2 m/S 596 mmHg 89%
    20:00 +18°C° 3.5 mm 1 m/S 597 mmHg 92%
    21:00 +16°C° 3.5 mm 1 m/S 597 mmHg 93%
    22:00 +16°C° 3.5 mm 1 m/S 597 mmHg 93%
    23:00 +16°C° 3.5 mm 1 m/S 597 mmHg 93%
    Mehr zeigen